• In Hungary
  • List of Countries
  • For 7 days
  • Water Temperature
  • Satellite Maps
  • Weather Map
  • News
  • Weather Widgets
  • user-avatar
    Login

    Hourly Weather Angoya

    Today, 23 June, Saturday

    Time Temperature Precipitation Wind Pressure Humidity
    00:00 +10°C° 0.1 mm 2 mps 627 mmHg 80%
    01:00 +11°C° 0 mm 1 mps 627 mmHg 83%
    02:00 +10°C° 0.5 mm 1 mps 627 mmHg 84%
    03:00 +10°C° 0.5 mm 1 mps 627 mmHg 86%
    04:00 +10°C° 0.5 mm 1 mps 627 mmHg 87%
    05:00 +11°C° 0.7 mm 1 mps 627 mmHg 86%
    06:00 +11°C° 0.7 mm 1 mps 627 mmHg 84%
    07:00 +10°C° 0 mm 2 mps 626 mmHg 86%
    08:00 +10°C° 0.7 mm 3 mps 626 mmHg 82%
    09:00 +11°C° 0.7 mm 3 mps 626 mmHg 79%
    10:00 +11°C° 0.7 mm 3 mps 626 mmHg 75%
    11:00 +11°C° 0.5 mm 3 mps 626 mmHg 74%
    12:00 +12°C° 0.5 mm 3 mps 626 mmHg 72%
    13:00 +11°C° 0 mm 4 mps 627 mmHg 73%
    14:00 +11°C° 0.5 mm 4 mps 627 mmHg 73%
    15:00 +11°C° 0.5 mm 4 mps 627 mmHg 73%
    16:00 +11°C° 0.5 mm 3 mps 627 mmHg 73%
    17:00 +10°C° 0.5 mm 3 mps 627 mmHg 76%
    18:00 +10°C° 0.5 mm 3 mps 626 mmHg 79%
    19:00 +9°C° 0.5 mm 3 mps 626 mmHg 82%
    20:00 +9°C° 0.8 mm 2 mps 626 mmHg 85%
    21:00 +8°C° 0.8 mm 2 mps 625 mmHg 88%
    22:00 +8°C° 0.8 mm 2 mps 625 mmHg 91%
    23:00 +7°C° 0.9 mm 2 mps 625 mmHg 91%

    Tomorrow, 24 June, Sunday

    Time Temperature Precipitation Wind Pressure Humidity
    00:00 +8°C° 0.9 mm 1 mps 624 mmHg 91%
    01:00 +8°C° 0.9 mm 1 mps 624 mmHg 92%
    02:00 +8°C° 0.9 mm 1 mps 624 mmHg 92%
    03:00 +8°C° 0.9 mm 1 mps 624 mmHg 92%
    04:00 +7°C° 0.9 mm 2 mps 624 mmHg 92%
    05:00 +8°C° 0.5 mm 2 mps 624 mmHg 89%
    06:00 +9°C° 0.5 mm 2 mps 624 mmHg 86%
    07:00 +9°C° 0.5 mm 2 mps 624 mmHg 83%
    08:00 +10°C° 0.2 mm 2 mps 624 mmHg 79%
    09:00 +12°C° 0.2 mm 2 mps 625 mmHg 76%
    10:00 +13°C° 0.2 mm 2 mps 625 mmHg 72%
    11:00 +13°C° 0.3 mm 2 mps 625 mmHg 70%
    12:00 +13°C° 0.3 mm 3 mps 625 mmHg 67%
    13:00 +14°C° 0.3 mm 3 mps 625 mmHg 65%
    14:00 +14°C° 0.4 mm 3 mps 625 mmHg 64%
    15:00 +14°C° 0.4 mm 4 mps 625 mmHg 62%
    16:00 +15°C° 0.4 mm 4 mps 625 mmHg 61%
    17:00 +14°C° 0.4 mm 4 mps 625 mmHg 66%
    18:00 +13°C° 0.4 mm 4 mps 625 mmHg 70%
    19:00 +12°C° 0.4 mm 4 mps 625 mmHg 75%
    20:00 +11°C° 0.2 mm 4 mps 625 mmHg 79%
    21:00 +10°C° 0.2 mm 3 mps 625 mmHg 83%
    22:00 +9°C° 0.2 mm 3 mps 624 mmHg 88%
    23:00 +8°C° 0.3 mm 3 mps 624 mmHg 89%

    Day after tomorrow, 25 June, Monday

    Time Temperature Precipitation Wind Pressure Humidity
    00:00 +8°C° 0.3 mm 3 mps 624 mmHg 90%
    01:00 +8°C° 0.3 mm 2 mps 624 mmHg 91%
    02:00 +8°C° 0.2 mm 2 mps 624 mmHg 91%
    03:00 +8°C° 0.2 mm 2 mps 624 mmHg 91%
    04:00 +8°C° 0.2 mm 2 mps 624 mmHg 91%
    05:00 +9°C° 0.1 mm 3 mps 625 mmHg 85%
    06:00 +9°C° 0.1 mm 3 mps 625 mmHg 80%
    07:00 +10°C° 0.1 mm 3 mps 626 mmHg 75%
    08:00 +12°C° 0 mm 3 mps 626 mmHg 69%
    09:00 +13°C° 0 mm 4 mps 627 mmHg 62%
    10:00 +14°C° 0 mm 4 mps 627 mmHg 56%
    11:00 +15°C° 0 mm 5 mps 627 mmHg 52%
    12:00 +16°C° 0 mm 5 mps 628 mmHg 49%
    13:00 +17°C° 0 mm 5 mps 628 mmHg 45%
    14:00 +17°C° 0.1 mm 6 mps 628 mmHg 46%
    15:00 +17°C° 0.1 mm 6 mps 628 mmHg 46%
    16:00 +17°C° 0.1 mm 6 mps 628 mmHg 47%
    17:00 +16°C° 0.1 mm 5 mps 628 mmHg 51%
    18:00 +15°C° 0.1 mm 5 mps 628 mmHg 55%
    19:00 +15°C° 0.1 mm 4 mps 628 mmHg 59%
    20:00 +13°C° 0 mm 4 mps 628 mmHg 65%
    21:00 +11°C° 0 mm 3 mps 628 mmHg 70%
    22:00 +9°C° 0 mm 3 mps 627 mmHg 76%
    23:00 +9°C° 0 mm 3 mps 627 mmHg 77%

    26 June, Tuesday

    Time Temperature Precipitation Wind Pressure Humidity
    00:00 +8°C° 0 mm 3 mps 627 mmHg 78%
    01:00 +8°C° 0 mm 3 mps 627 mmHg 78%
    02:00 +8°C° 0 mm 3 mps 627 mmHg 78%
    03:00 +8°C° 0 mm 3 mps 628 mmHg 78%
    04:00 +8°C° 0 mm 3 mps 628 mmHg 77%
    05:00 +10°C° 0 mm 3 mps 629 mmHg 69%
    06:00 +13°C° 0 mm 3 mps 629 mmHg 60%
    07:00 +15°C° 0 mm 4 mps 630 mmHg 51%
    08:00 +17°C° 0 mm 4 mps 631 mmHg 48%
    09:00 +18°C° 0 mm 4 mps 631 mmHg 44%
    10:00 +19°C° 0 mm 5 mps 631 mmHg 41%
    11:00 +19°C° 0 mm 5 mps 631 mmHg 40%
    12:00 +19°C° 0 mm 5 mps 631 mmHg 40%
    13:00 +20°C° 0 mm 5 mps 631 mmHg 39%
    14:00 +20°C° 0 mm 5 mps 631 mmHg 40%
    15:00 +20°C° 0 mm 5 mps 631 mmHg 41%
    16:00 +20°C° 0 mm 5 mps 631 mmHg 41%
    17:00 +19°C° 0 mm 4 mps 631 mmHg 45%
    18:00 +18°C° 0 mm 3 mps 631 mmHg 49%
    19:00 +17°C° 0 mm 2 mps 631 mmHg 54%
    20:00 +15°C° 0 mm 2 mps 630 mmHg 59%
    21:00 +14°C° 0 mm 2 mps 630 mmHg 64%
    22:00 +12°C° 0 mm 1 mps 629 mmHg 70%
    23:00 +11°C° 0 mm 1 mps 629 mmHg 71%

    27 June, Wednesday

    Time Temperature Precipitation Wind Pressure Humidity
    00:00 +11°C° 0 mm 1 mps 629 mmHg 72%
    01:00 +11°C° 0 mm 1 mps 629 mmHg 73%
    02:00 +11°C° 0 mm 1 mps 629 mmHg 72%
    03:00 +11°C° 0 mm 1 mps 629 mmHg 72%
    04:00 +11°C° 0 mm 1 mps 629 mmHg 71%
    05:00 +13°C° 0 mm 1 mps 630 mmHg 64%
    06:00 +16°C° 0 mm 1 mps 630 mmHg 57%
    07:00 +18°C° 0 mm 2 mps 631 mmHg 50%
    08:00 +18°C° 0 mm 2 mps 631 mmHg 48%
    09:00 +19°C° 0 mm 3 mps 631 mmHg 46%
    10:00 +20°C° 0 mm 3 mps 631 mmHg 44%
    11:00 +20°C° 0.1 mm 3 mps 630 mmHg 44%
    12:00 +20°C° 0.1 mm 4 mps 630 mmHg 43%
    13:00 +21°C° 0.1 mm 4 mps 630 mmHg 42%
    14:00 +21°C° 0.3 mm 4 mps 630 mmHg 44%
    15:00 +20°C° 0.3 mm 4 mps 629 mmHg 46%
    16:00 +20°C° 0.3 mm 4 mps 629 mmHg 47%
    17:00 +18°C° 1.6 mm 3 mps 628 mmHg 57%
    18:00 +16°C° 1.6 mm 3 mps 628 mmHg 66%
    19:00 +14°C° 1.6 mm 3 mps 627 mmHg 76%
    20:00 +14°C° 0.9 mm 2 mps 627 mmHg 80%
    21:00 +13°C° 0.9 mm 2 mps 627 mmHg 84%
    22:00 +12°C° 0.9 mm 2 mps 626 mmHg 88%
    23:00 +10°C° 0.3 mm 2 mps 626 mmHg 88%

    28 June, Thursday

    Time Temperature Precipitation Wind Pressure Humidity
    00:00 +10°C° 0.3 mm 2 mps 626 mmHg 88%
    01:00 +11°C° 0.3 mm 1 mps 625 mmHg 88%
    02:00 +11°C° 0.2 mm 1 mps 625 mmHg 88%
    03:00 +11°C° 0.2 mm 1 mps 625 mmHg 87%
    04:00 +11°C° 0.2 mm 1 mps 625 mmHg 86%
    05:00 +13°C° 0.1 mm 2 mps 625 mmHg 79%
    06:00 +14°C° 0.1 mm 2 mps 626 mmHg 72%
    07:00 +16°C° 0.1 mm 2 mps 626 mmHg 65%
    08:00 +17°C° 0.1 mm 3 mps 626 mmHg 60%
    09:00 +18°C° 0.1 mm 3 mps 626 mmHg 55%
    10:00 +19°C° 0.1 mm 3 mps 627 mmHg 50%
    11:00 +19°C° 0.2 mm 3 mps 626 mmHg 49%
    12:00 +20°C° 0.2 mm 3 mps 626 mmHg 48%
    13:00 +20°C° 0.2 mm 4 mps 626 mmHg 47%
    14:00 +20°C° 0.3 mm 3 mps 626 mmHg 48%
    15:00 +19°C° 0.3 mm 3 mps 626 mmHg 48%
    16:00 +19°C° 0.3 mm 3 mps 626 mmHg 49%
    17:00 +18°C° 0.1 mm 3 mps 626 mmHg 52%
    18:00 +18°C° 0.1 mm 2 mps 626 mmHg 56%
    19:00 +17°C° 0.1 mm 2 mps 625 mmHg 60%
    20:00 +15°C° 0.2 mm 2 mps 625 mmHg 66%
    21:00 +13°C° 0.2 mm 2 mps 624 mmHg 73%
    22:00 +12°C° 0.2 mm 1 mps 624 mmHg 80%
    23:00 +11°C° 0 mm 1 mps 623 mmHg 79%
    Show more